Regional Weather Roundup
Issued by NWS Upton, NY

Current Version | Previous Version | Text Only | Print | Product List | Glossary On
Versions: 1 2 3 4 5 6 7 8 9 10 11 12 13 14 15 16 17 18 19 20 21 22 23 24 25 26 27 28 29 30 31 32 33 34 35 36 37 38 39 40 41 42 43 44 45 46 47 48 49 50
000 ASUS41 KOKX 240409 RWROKX REGIONAL WEATHER ROUNDUP NATIONAL WEATHER SERVICE NEW YORK NY 1200 AM EDT TUE OCT 24 2017 NOTE: "FAIR" INDICATES FEW OR NO CLOUDS BELOW 12,000 FEET WITH NO SIGNIFICANT WEATHER AND/OR OBSTRUCTIONS TO VISIBILITY. NYZ071-072-176-178-NJZ106-104-240500- NEW YORK CITY METRO AREA CITY SKY/WX TMP DP RH WIND PRES REMARKS Central Park CLOUDY 69 65 86 VRB5 30.01F Bronx Bot Gard N/A 70 63 78 S10 30.01S LaGuardia APRT CLOUDY 70 65 84 SE18G29 29.98F Kennedy INTL CLOUDY 67 66 97 SE21 29.99F Breezy Point N/A 64 N/A N/A SE15 N/A Newark/Liberty CLOUDY 68 65 90 SE12G20 29.97F Teterboro CLOUDY 71 66 84 SE18G29 29.96F $$ NYZ177-179-078>081-240500- LONG ISLAND NEW YORK CITY SKY/WX TMP DP RH WIND PRES REMARKS Jones Beach N/A 66 N/A N/A SE15G22 N/A Matinecock PT N/A 70 N/A N/A S8G16 N/A Farmingdale CLOUDY 69 64 84 SE20G28 30.01F MacArthur/ISP CLOUDY 68 64 87 SE16G23 30.03F Shirley CLOUDY 70 65 84 SE16G23 30.05F Mt Sinai Harb N/A N/A N/A N/A S15G22 N/A Westhampton CLOUDY 68 62 81 SE13 30.08F East Hampton CLOUDY 65 63 92 SE10 30.08F Montauk N/A 66 65 96 MISG 30.10F $$ NYZ052-065-067-240500- HUDSON VALLEY CITY SKY/WX TMP DP RH WIND PRES REMARKS White Plains CLOUDY 69 64 84 SE16G24 30.00F Larchmont Harb N/A 70 N/A N/A SE23 N/A Croton On Huds N/A 70 N/A N/A SE9G18 N/A Newburgh LGT RAIN 70 64 83 SE12 30.00F Montgomery LGT RAIN 69 64 84 S13 29.96F Poughkeepsie CLOUDY 69 62 78 S10G17 29.97F Albany CLOUDY 69 59 70 SE9G16 29.97F $$ NJZ001-105-106-008-010-013-015-019>022-104-240500- NEW JERSEY CITY SKY/WX TMP DP RH WIND PRES REMARKS Newark/Liberty CLOUDY 68 65 90 SE12G20 29.97F Teterboro CLOUDY 71 66 84 SE18G29 29.96F Caldwell CLOUDY 68 67 96 SE14G23 29.97F Somerville CLOUDY 71 66 84 SE9 29.93F Linden MOCLDY 69 64 85 SE9 29.96F Perth Amboy N/A 68 N/A N/A SE17G23 N/A Sussex CLOUDY 70 64 81 S6G16 29.95F Andover N/A 69 64 84 S8 29.94F Trenton CLOUDY 70 66 87 S14 29.92F Millville CLOUDY 73 67 81 S15G22 29.93R Atlantic City MOCLDY 70 67 90 SE16G26 29.94F Wrightstown MOCLDY 69 65 88 S10 29.92F Toms River N/A 69 66 90 SE16G22 29.96F Belmar CLOUDY 68 65 90 SE15G23 29.97F $$ PAZ047>061-062-071-240500- EASTERN PENNSYLVANIA CITY SKY/WX TMP DP RH WIND PRES REMARKS Philadelphia CLOUDY 70 65 84 SE10 29.93S Allentown CLOUDY 71 63 75 SE14G25 29.91F Scranton LGT RAIN 67 62 84 SE10G21 29.87F $$ CTZ002-004>006-009-010-012-RIZ004-006-007-MAZ004-011-015-240500- SOUTHERN NEW ENGLAND IN CT CITY SKY/WX TMP DP RH WIND PRES REMARKS Bradley INTL CLOUDY 66 63 90 SE7 30.06F Hartford CLOUDY 68 64 87 S9 30.06F Danbury CLOUDY 68 64 87 SE9 30.03F Wtrbury/Oxford LGT RAIN 65 64 97 SE13 30.06F Norwalk Harbor N/A 68 N/A N/A SE18 N/A Bridgeport CLOUDY 70 64 81 SE15G21 30.03F Meriden CLOUDY 67 63 87 SE7 30.06F New Haven CLOUDY 69 64 84 SE14 30.06F Chester MOCLDY 66 64 94 SE7 30.09F Groton CLOUDY 67 64 90 SE17 30.08F Wilimantic CLOUDY 68 65 90 S7 30.10F IN RI CITY SKY/WX TMP DP RH WIND PRES REMARKS Providence CLOUDY 67 64 90 S15 30.14F Block Island MOCLDY 65 63 93 SE16 30.12F Westerly CLOUDY 67 64 90 SE10 30.12F IN MA CITY SKY/WX TMP DP RH WIND PRES REMARKS Boston PTCLDY 61 60 97 SE5 30.14F Worcester LGT RAIN 62 60 93 SE7 30.12F Westfield CLOUDY 64 63 96 CALM 30.06F Provincetown MOCLDY 66 60 81 S14G20 30.17F Nantucket CLOUDY 63 62 97 SE15 30.17F $$ ANZ330-335-338-340-345-350-353-355-240500- COASTAL MARINE OBSERVATIONS STATION/POSITION TIME SKY/WX TEMP WIND PRES VSBY WAVE AIR SEA DIR/SP/G HT/PER (UTC) (F) (DEG/KT/KT) (MB) (MI) (FT/S) NY HARB ENTRANCE 0250 67 65 140/ 16/ 17 1016.1 3/ 4 20 S FIRE ISLAND 0250 67 65 150/ 17/ 19 1017.4 3/ 4 GREAT SOUTH BAY 0315 67 63 140/ 14/ 16 N/A 15 E BARNEGAT LI NOT AVBL HUDSON CANYON 0250 68 65 140/ 17/ 19 1017.2 3/ 4 KINGS POINT 0348 69 66 190/ 17/ 22 1016.1 EXECUTION ROCKS 0330 70 140/ 16/ 21 N/A WESTERN LI SOUND 0249 70 150/ 14/ 21 N/A 1/ 2 CENTRAL LI SOUND 0330 68 160/ 16/ 19 N/A 2 EASTERN LI SOUND NOT AVBL ROBBINS REEF 0348 68 150/ 25/ 30 1015.4 $$ >>>>>>>>>>>>>>>>>>>>>>>>>>>> KEY <<<<<<<<<<<<<<<<<<<<<<<<<<< > < > SKY/WX - Sky Condition/Present Weather < > TMP - Temperature in Fahrenheit < > DP - Dew Point in Fahrenheit < > RH - Relative Humidity in Percent < > WIND - Direction (from) and Speed in MPH < > PRES - Mean Sea Level Pressure (inches of Hg) < > WCI - Wind Chill Index < > VSB - VISIBILITY IN MILES < > HX - HEAT INDEX < > TC - TEMPERATURE IN CELSIUS < > VRB - VARIABLE WIND DIRECTION < > < >>>>>>>>>>>>>>>>>>>>>>>>>>>> KEY <<<<<<<<<<<<<<<<<<<<<<<<<<<

USA.gov is the U.S. government's official web portal to all federal, state and local government web resources and services.